Location: Austin
(30.3000°N, 97.7500°W)
Time: 06:18:18
(UTC-06:00)

BREEZE-M DEB (TANK) - Pass Details

Date: 05 February 2026
Orbit: 312 x 11317 km, 49.7° (Epoch: 15 February)

Event Time Altitude Azimuth Distance (km) Brightness Sun altitude
Exits shadow 06:40:47 - 316° (NW) 1,270 4.7 -8.8°
Reaches altitude 10° 06:40:51 10° 317° (NW) 1,235 4.6 -8.8°
Maximum altitude 06:43:08 77° 43° (NE) 415 2.8 -8.3°
Drops below altitude 10° 06:47:13 10° 131° (SE) 2,182 7.5 -7.4°
Sets 06:51:00 0° 132° (SE) 4,009 9.0 -6.7°
